EA3GKP-1 Weather Reports


Display with metric or nautical units.
time (UTC)temp
F
wind
direction
speed
MPH
gust
MPH
rain 1hr
in
rain 24hr
in
rain mn
in
humidity
%
barometer
mb
20260505152520 66 7 0.0 0.0 0.00 0.00 0.00 8 1009.0
20260505151540 66 7 0.0 0.0 0.00 0.00 0.00 8 1009.0
20260505150602 67 4 0.0 0.0 0.00 0.00 0.00 8 1009.0
20260505124134 68 5 0.0 0.0 0.00 0.00 0.00 8 1010.0
20260505123156 68 5 0.0 0.0 0.00 0.00 0.00 8 1010.0
20260505122218 69 4 0.0 0.0 0.00 0.00 0.00 8 1010.0
20260505121242 70 4 0.0 0.0 0.00 0.00 0.00 8 1010.0
20260505120303 70 7 0.0 0.0 0.00 0.00 0.00 8 1010.0
20260505115325 69 6 0.0 0.0 0.00 0.00 0.00 8 1010.0
20260505114347 69 6 0.0 0.0 0.00 0.00 0.00 8 1010.0
20260505113409 70 7 0.0 0.0 0.00 0.00 0.00 8 1010.0
20260505112431 69 6 0.0 0.0 0.00 0.00 0.00 8 1010.0
20260505110515 70 7 0.0 0.0 0.00 0.00 0.00 8 1011.0
20260505101708 65 8 0.0 0.0 0.00 0.00 0.00 8 1011.0
20260505100732 64 8 0.0 0.0 0.00 0.00 0.00 8 1011.0
20260505095750 64 10 0.0 0.0 0.00 0.00 0.00 8 1011.0
20260505093835 67 9 0.0 0.0 0.00 0.00 0.00 8 1011.0
20260505092857 68 9 0.0 0.0 0.00 0.00 0.00 8 1011.0
20260505090941 65 13 0.0 0.0 0.00 0.00 0.00 10 1011.0
20260505090005 63 14 0.0 0.0 0.00 0.00 0.00 12 1011.0
20260505085025 63 14 0.0 0.0 0.00 0.00 0.00 12 1010.0
20260505084048 60 19 0.0 0.0 0.00 0.00 0.00 13 1011.0
20260505082132 64 9 0.0 0.0 0.00 0.00 0.00 10 1011.0
20260505081154 64 9 0.0 0.0 0.00 0.00 0.00 8 1011.0
20260505080216 65 10 0.0 0.0 0.00 0.00 0.00 8 1011.0
20260505075238 65 8 0.0 0.0 0.00 0.00 0.00 8 1011.0
20260505074300 65 9 0.0 0.0 0.00 0.00 0.00 8 1011.0
20260505072345 65 9 0.0 0.0 0.00 0.00 0.00 8 1011.0
20260505071407 64 8 0.0 0.0 0.00 0.00 0.00 8 1011.0
20260505070429 64 10 0.0 0.0 0.00 0.00 0.00 10 1011.0
20260505065453 64 11 0.0 0.0 0.00 0.00 0.00 10 1011.0
20260505064513 64 11 0.0 0.0 0.00 0.00 0.00 10 1011.0
20260505063535 64 10 0.0 0.0 0.00 0.00 0.00 10 1011.0
20260505062557 62 12 0.0 0.0 0.00 0.00 0.00 10 1011.0
20260505061620 62 14 0.0 0.0 0.00 0.00 0.00 10 1011.0
20260505060643 61 11 0.0 0.0 0.00 0.00 0.00 10 1011.0
20260505055704 61 13 0.0 0.0 0.00 0.00 0.00 10 1011.0
20260505054726 60 13 0.0 0.0 0.00 0.00 0.00 10 1011.0
20260505053751 59 14 0.0 0.0 0.00 0.00 0.00 10 1011.0
20260505052810 59 16 0.0 0.0 0.00 0.00 0.00 12 1011.0
20260505051833 58 15 0.0 0.0 0.00 0.00 0.00 12 1011.0
20260505050855 58 16 0.0 0.0 0.00 0.00 0.00 12 1011.0
20260505040130 57 15 0.0 0.0 0.00 0.00 0.00 12 1011.0
20260505035152 58 17 0.0 0.0 0.00 0.00 0.00 12 1011.0
20260505034214 58 17 0.0 0.0 0.00 0.00 0.00 12 1011.0
20260505033238 58 14 0.0 0.0 0.00 0.00 0.00 12 1011.0
20260505032301 58 16 0.0 0.0 0.00 0.00 0.00 12 1011.0
20260505031322 58 16 0.0 0.0 0.00 0.00 0.00 12 1011.0
20260505030342 59 14 0.0 0.0 0.00 0.00 0.00 12 1011.0
20260505025405 59 16 0.0 0.0 0.00 0.00 0.00 12 1011.0
20260505024427 59 16 0.0 0.0 0.00 0.00 0.00 12 1011.0
20260505023449 59 13 0.0 0.0 0.00 0.00 0.00 12 1011.0
20260505022511 59 16 0.0 0.0 0.00 0.00 0.00 12 1011.0
20260505021533 59 16 0.0 0.0 0.00 0.00 0.00 12 1011.0
20260505020555 59 15 0.0 0.0 0.00 0.00 0.00 12 1011.0
20260505015618 59 16 0.0 0.0 0.00 0.00 0.00 12 1011.0
20260505014642 59 15 0.0 0.0 0.00 0.00 0.00 12 1011.0
20260505013702 58 15 0.0 0.0 0.00 0.00 0.00 12 1011.0
20260505012724 59 14 0.0 0.0 0.00 0.00 0.00 12 1011.0
20260505011746 59 16 0.0 0.0 0.00 0.00 0.00 12 1011.0
20260505010808 59 15 0.0 0.0 0.00 0.00 0.00 12 1011.0
20260505005830 59 16 0.0 0.0 0.00 0.00 0.00 12 1011.0
20260505004853 59 14 0.0 0.0 0.00 0.00 0.00 12 1011.0
20260505003915 59 15 0.0 0.0 0.00 0.00 0.00 12 1011.0
20260505002937 59 16 0.0 0.0 0.00 0.00 0.00 12 1011.0
20260505001959 59 17 0.0 0.0 0.00 0.00 0.00 12 1011.0
20260505001023 59 14 0.0 0.0 0.00 0.00 0.00 12 1011.0
20260505000046 59 14 0.0 0.0 0.00 0.00 0.00 12 1011.0
20260504235108 59 16 0.0 0.0 0.00 0.00 0.00 13 1011.0
20260504234128 59 17 0.0 0.0 0.00 0.00 0.00 13 1011.0
20260504233150 59 17 0.0 0.0 0.00 0.00 0.00 13 1011.0
20260504232212 59 19 0.0 0.0 0.00 0.00 0.00 13 1012.0
20260504231234 59 16 0.0 0.0 0.00 0.00 0.00 13 1011.0
20260504230256 59 19 0.0 0.0 0.00 0.00 0.00 13 1011.0
20260504225318 59 17 0.0 0.0 0.00 0.00 0.00 13 1011.0
20260504224341 59 19 0.0 0.0 0.00 0.00 0.00 15 1011.0
20260504223403 59 17 0.0 0.0 0.00 0.00 0.00 15 1011.0
20260504222425 59 19 0.0 0.0 0.00 0.00 0.00 13 1011.0
20260504221447 59 18 0.0 0.0 0.00 0.00 0.00 15 1011.0
20260504220509 60 19 0.0 0.0 0.00 0.00 0.00 13 1011.0
20260504215531 60 16 0.0 0.0 0.00 0.00 0.00 13 1011.0
20260504214554 61 15 0.0 0.0 0.00 0.00 0.00 13 1011.0
20260504213617 61 17 0.0 0.0 0.00 0.00 0.00 13 1011.0
20260504212638 61 14 0.0 0.0 0.00 0.00 0.00 12 1011.0
20260504211700 61 15 0.0 0.0 0.00 0.00 0.00 12 1011.0
20260504210722 61 16 0.0 0.0 0.00 0.00 0.00 12 1011.0
20260504205744 61 14 0.0 0.0 0.00 0.00 0.00 13 1011.0
20260504204806 62 14 0.0 0.0 0.00 0.00 0.00 12 1011.0
20260504203831 62 15 0.0 0.0 0.00 0.00 0.00 13 1011.0
20260504202851 62 16 0.0 0.0 0.00 0.00 0.00 13 1011.0
20260504201913 62 17 0.0 0.0 0.00 0.00 0.00 13 1011.0
20260504200935 62 18 0.0 0.0 0.00 0.00 0.00 13 1011.0
20260504195957 63 19 0.0 0.0 0.00 0.00 0.00 16 1011.0
20260504195021 63 19 0.0 0.0 0.00 0.00 0.00 15 1011.0
20260504194041 62 19 0.0 0.0 0.00 0.00 0.00 15 1011.0
20260504193108 62 20 0.0 0.0 0.00 0.00 0.00 15 1011.0
20260504192127 62 20 0.0 0.0 0.00 0.00 0.00 15 1011.0
20260504190210 63 19 0.0 0.0 0.00 0.00 0.00 15 1010.0
20260504185232 63 20 0.0 0.0 0.00 0.00 0.00 15 1010.0
20260504184254 63 18 0.0 0.0 0.00 0.00 0.00 15 1010.0
20260504183316 64 19 0.0 0.0 0.00 0.00 0.00 15 1010.0
20260504182338 64 18 0.0 0.0 0.00 0.00 0.00 15 1010.0
20260504181401 64 16 0.0 0.0 0.00 0.00 0.00 15 1010.0
20260504180423 64 19 0.0 0.0 0.00 0.00 0.00 15 1010.0
20260504175445 64 19 0.0 0.0 0.00 0.00 0.00 15 1010.0
20260504174507 64 19 0.0 0.0 0.00 0.00 0.00 15 1010.0
20260504173529 65 17 0.0 0.0 0.00 0.00 0.00 15 1010.0
20260504172551 65 16 0.0 0.0 0.00 0.00 0.00 15 1010.0
20260504171614 65 17 0.0 0.0 0.00 0.00 0.00 15 1010.0
20260504170638 64 19 0.0 0.0 0.00 0.00 0.00 15 1010.0